Regional Weather Roundup
Issued by NWS State College, PA

Home | Current Version | Previous Version | Text Only | Print | Product List | Glossary Off
Versions: 1 2 3 4 5 6 7 8 9 10 11 12 13 14 15 16 17 18 19 20 21 22 23 24 25 26 27 28 29 30 31 32 33 34 35 36 37 38 39 40 41 42 43 44 45 46 47 48 49 50

367
ASUS41 KCTP 182310
RWRCTP

REGIONAL WEATHER ROUNDUP
NATIONAL WEATHER SERVICE STATE COLLEGE PA
600 PM EST WED JAN 18 2017

Note: "fair" indicates few or no clouds below 12,000 feet with no
significant weather and/or obstructions to visibility.

* = STATION THAT DOES NOT REPORT PRECIPITATION /E.G. RAIN...SNOW...ETC/
    THUNDER OR FOG.

PAZ002>004-007>009-013>016-020>023-029>032-190000-
WESTERN PENNSYLVANIA

CITY           SKY/WX    TMP DP  RH WIND       PRES   REMARKS
ERIE           CLOUDY    37  35  92 W10       30.08S FOG
MEADVILLE      CLOUDY    35  34  96 W6        30.06R FOG
FRANKLIN*        N/A     36  32  87 W6        30.08R
NEW CASTLE     CLOUDY    38  36  92 W5        30.10R
BEAVER COUNTY  CLOUDY    37  34  87 SW8       30.09R
BUTLER*        CLOUDY    37  34  87 SW7       30.11R
PITTSBURGH INT CLOUDY    40  34  79 SW5       30.09R
PITTSBURGH     CLOUDY    39  32  76 W9        30.09R
INDIANA*       CLOUDY    37  37 100 W7G13     30.10R
LATROBE        CLOUDY    39  34  81 W8        30.10S
WASHINGTON CO* CLOUDY    39  34  81 SW6       30.11R
$$

PAZ004>006-010>012-017>019-024>028-033>037-041-042-045-046-049>053-190000-
CENTRAL PENNSYLVANIA

CITY           SKY/WX    TMP DP  RH WIND       PRES   REMARKS
BRADFORD       CLOUDY    34  33  96 W5        30.01R
DUBOIS         CLOUDY    35  32  88 W13       30.04S FOG
CLEARFIELD     CLOUDY    37  35  92 W8        30.05R
JOHNSTOWN      CLOUDY    35  33  92 W10       30.02S
ALTOONA        CLOUDY    40  34  79 W13       30.05R
STATE COLLEGE  CLOUDY    39  34  81 W10       30.05R
WILLIAMSPORT   CLOUDY    44  36  73 W7        30.03R
SELINSGROVE    CLOUDY    44  38  79 NW7       30.05R
FT INDIANTOWN  CLOUDY    46  40  78 W5        30.03R
CAPITAL CITY   CLOUDY    49  35  58 NW10      30.03R
HARRISBURG     CLOUDY    48  38  68 NW16      30.03R
YORK           CLOUDY    47  38  71 W6        30.03R
$$

PAZ038>040-043-044-047-048-054-055-060>062-067>071-190000-
EASTERN PENNSYLVANIA

CITY           SKY/WX    TMP DP  RH WIND       PRES   REMARKS
SCRANTON       CLOUDY    40  38  93 CALM      30.02R
MOUNT POCONO   CLOUDY    35  33  92 NW7       29.97R
ALLENTOWN      CLOUDY    43  38  82 CALM      30.03R
QUAKERTOWN*    CLOUDY    41  39  93 N3        30.03R
READING        CLOUDY    46  37  71 NW10      30.02R
LANCASTER      CLOUDY    48  40  73 NW6       30.03R
COATESVILLE    CLOUDY    46  39  76 N8        30.02R
POTTSTOWN      CLOUDY    45  38  76 N9        30.03R
BLUE BELL      CLOUDY    43  39  87 CALM      30.01R
DOYLESTOWN     CLOUDY    43  38  82 N5        30.02R
WILLOW GROVE   NOT AVBL
NORTH PHILA    CLOUDY    45  39  79 N7        30.04R
PHILADELPHIA   CLOUDY    47  39  74 N8        30.02R
$$




USA.gov is the U.S. government's official web portal to all federal, state and local government web resources and services.